"datetime","temp","dp","rain_mm","uv","solar","mb","wind_mph","gust_mph","windchill","rh"
"2015-12-06 00:00:00",11.5,8.3,0.0,0.0,0,1013.7,3,14,"",81
"2015-12-06 00:01:00",11.5,8.3,0.0,0.0,0,1013.6,8,21,"",81
"2015-12-06 00:02:00",11.5,8.3,0.0,0.0,0,1013.7,6,9,"",81
"2015-12-06 00:03:00",11.5,8.3,0.0,0.0,0,1013.6,5,9,"",81
"2015-12-06 00:04:00",11.5,8.3,0.0,0.0,0,1013.6,5,9,"",81
"2015-12-06 00:05:00",11.5,8.4,0.0,0.0,0,1013.6,5,6,"",81
"2015-12-06 00:06:00",11.5,8.4,0.0,0.0,0,1013.6,5,9,"",81
"2015-12-06 00:07:00",11.5,8.4,0.0,0.0,0,1013.7,6,9,"",81
"2015-12-06 00:08:00",11.5,8.4,0.0,0.0,0,1013.6,7,12,"",81
"2015-12-06 00:09:00",11.5,8.4,0.0,0.0,0,1013.7,7,18,"",81
"2015-12-06 00:10:00",11.5,8.4,0.0,0.0,0,1013.8,6,9,"",81
"2015-12-06 00:11:00",11.5,8.4,0.0,0.0,0,1013.7,2,6,"",81
"2015-12-06 00:12:00",11.5,8.4,0.0,0.0,0,1013.7,3,12,"",81
"2015-12-06 00:13:00",11.5,8.5,0.0,0.0,0,1013.7,7,10,"",82
"2015-12-06 00:14:00",11.5,8.5,0.0,0.0,0,1013.7,5,9,"",82
"2015-12-06 00:15:00",11.5,8.5,0.0,0.0,0,1013.7,5,12,"",82
"2015-12-06 00:16:00",11.5,8.5,0.0,0.0,0,1013.8,7,12,"",82
"2015-12-06 00:17:00",11.5,8.5,0.0,0.0,0,1013.8,6,12,"",82
"2015-12-06 00:18:00",11.5,8.6,0.0,0.0,0,1013.8,5,6,"",82
"2015-12-06 00:19:00",11.5,8.6,0.0,0.0,0,1013.8,5,8,"",82
"2015-12-06 00:20:00",11.6,8.6,0.0,0.0,0,1013.9,3,9,"",82
"2015-12-06 00:21:00",11.6,8.6,0.0,0.0,0,1013.8,5,8,"",82
"2015-12-06 00:22:00",11.6,8.6,0.0,0.0,0,1013.8,3,8,"",82
"2015-12-06 00:23:00",11.6,8.6,0.0,0.0,0,1013.8,5,9,"",82
"2015-12-06 00:24:00",11.6,8.6,0.0,0.0,0,1013.7,5,10,"",82
"2015-12-06 00:25:00",11.6,8.6,0.0,0.0,0,1013.8,7,12,"",82
"2015-12-06 00:26:00",11.6,8.6,0.0,0.0,0,1013.8,6,9,"",82
"2015-12-06 00:27:00",11.6,8.6,0.0,0.0,0,1013.7,6,12,"",82
"2015-12-06 00:28:00",11.6,8.6,0.0,0.0,0,1013.8,7,12,"",82
"2015-12-06 00:29:00",11.6,8.6,0.0,0.0,0,1013.7,6,9,"",82
"2015-12-06 00:30:00",11.6,8.6,0.0,0.0,0,1013.7,3,8,"",82
"2015-12-06 00:31:00",11.6,8.6,0.0,0.0,0,1013.7,6,12,"",82
"2015-12-06 00:32:00",11.6,8.6,0.0,0.0,0,1013.7,6,12,"",82
"2015-12-06 00:33:00",11.6,8.6,0.0,0.0,0,1013.7,5,7,"",82
"2015-12-06 00:34:00",11.6,8.6,0.0,0.0,0,1013.6,3,7,"",82
"2015-12-06 00:35:00",11.6,8.6,0.0,0.0,0,1013.7,5,10,"",82
"2015-12-06 00:36:00",11.6,8.6,0.0,0.0,0,1013.8,5,10,"",82
"2015-12-06 00:37:00",11.6,8.6,0.0,0.0,0,1013.7,3,7,"",82
"2015-12-06 00:38:00",11.6,8.6,0.0,0.0,0,1013.7,5,12,"",82
"2015-12-06 00:39:00",11.6,8.6,0.0,0.0,0,1013.6,6,12,"",82
"2015-12-06 00:40:00",11.6,8.8,0.0,0.0,0,1013.7,7,8,"",83
"2015-12-06 00:41:00",11.6,8.8,0.0,0.0,0,1013.6,3,6,"",83
"2015-12-06 00:42:00",11.6,8.8,0.0,0.0,0,1013.6,5,12,"",83
"2015-12-06 00:43:00",11.6,8.8,0.0,0.0,0,1013.6,6,20,"",83
"2015-12-06 00:44:00",11.6,8.8,0.0,0.0,0,1013.7,6,9,"",83
"2015-12-06 00:45:00",11.6,8.8,0.0,0.0,0,1013.6,5,10,"",83
"2015-12-06 00:46:00",11.6,8.8,0.0,0.0,0,1013.5,5,10,"",83
"2015-12-06 00:47:00",11.6,8.8,0.0,0.0,0,1013.6,7,14,"",83
"2015-12-06 00:48:00",11.7,8.9,0.0,0.0,0,1013.6,7,8,"",83
"2015-12-06 00:49:00",11.7,8.9,0.0,0.0,0,1013.6,7,12,"",83
"2015-12-06 00:50:00",11.7,8.9,0.0,0.0,0,1013.6,5,10,"",83
"2015-12-06 00:51:00",11.7,8.9,0.0,0.0,0,1013.5,5,7,"",83
"2015-12-06 00:52:00",11.7,8.9,0.0,0.0,0,1013.5,6,14,"",83
"2015-12-06 00:53:00",11.7,8.9,0.0,0.0,0,1013.5,3,6,"",83
"2015-12-06 00:54:00",11.7,8.9,0.0,0.0,0,1013.6,2,3,"",83
"2015-12-06 00:55:00",11.7,8.9,0.0,0.0,0,1013.5,3,12,"",83
"2015-12-06 00:56:00",11.7,8.9,0.0,0.0,0,1013.4,6,12,"",83
"2015-12-06 00:57:00",11.7,8.9,0.0,0.0,0,1013.5,3,3,"",83
"2015-12-06 00:58:00",11.7,8.9,0.0,0.0,0,1013.5,2,3,"",83
"2015-12-06 00:59:00",11.7,8.9,0.0,0.0,0,1013.5,3,9,"",83
"2015-12-06 01:00:00",11.7,8.9,0.0,0.0,0,1013.5,5,10,"",83
"2015-12-06 01:01:00",11.7,8.9,0.0,0.0,0,1013.5,3,5,"",83
"2015-12-06 01:02:00",11.7,8.9,0.0,0.0,0,1013.6,3,9,"",83
"2015-12-06 01:03:00",11.7,8.9,0.0,0.0,0,1013.5,3,5,"",83
"2015-12-06 01:04:00",11.7,8.9,0.0,0.0,0,1013.6,3,12,"",83
"2015-12-06 01:05:00",11.7,9.1,0.0,0.0,0,1013.6,7,12,"",84
"2015-12-06 01:06:00",11.7,9.1,0.0,0.0,0,1013.5,5,12,"",84
"2015-12-06 01:07:00",11.7,9.1,0.0,0.0,0,1013.6,7,16,"",84
"2015-12-06 01:08:00",11.7,9.1,0.0,0.0,0,1013.6,7,10,"",84
"2015-12-06 01:09:00",11.7,9.1,0.0,0.0,0,1013.6,5,9,"",84
"2015-12-06 01:10:00",11.7,9.1,0.0,0.0,0,1013.6,5,7,"",84
"2015-12-06 01:11:00",11.7,9.1,0.0,0.0,0,1013.6,5,10,"",84
"2015-12-06 01:12:00",11.7,9.1,0.0,0.0,0,1013.6,5,5,"",84
"2015-12-06 01:13:00",11.7,9.1,0.0,0.0,0,1013.6,3,16,"",84
"2015-12-06 01:14:00",11.7,9.1,0.0,0.0,0,1013.6,5,8,"",84
"2015-12-06 01:15:00",11.7,9.1,0.0,0.0,0,1013.6,2,6,"",84
"2015-12-06 01:16:00",11.7,9.1,0.0,0.0,0,1013.6,3,12,"",84
"2015-12-06 01:17:00",11.7,9.1,0.0,0.0,0,1013.7,5,5,"",84
"2015-12-06 01:18:00",11.7,9.1,0.0,0.0,0,1013.7,3,9,"",84
"2015-12-06 01:19:00",11.7,9.1,0.0,0.0,0,1013.7,5,5,"",84
"2015-12-06 01:20:00",11.7,9.2,0.0,0.0,0,1013.7,2,8,"",85
"2015-12-06 01:21:00",11.7,9.2,0.0,0.0,0,1013.7,3,8,"",85
"2015-12-06 01:22:00",11.7,9.2,0.0,0.0,0,1013.7,2,6,"",85
"2015-12-06 01:23:00",11.7,9.2,0.0,0.0,0,1013.7,3,9,"",85
"2015-12-06 01:24:00",11.7,9.2,0.0,0.0,0,1013.6,6,8,"",85
"2015-12-06 01:25:00",11.7,9.2,0.0,0.0,0,1013.7,3,5,"",85
"2015-12-06 01:26:00",11.7,9.2,0.0,0.0,0,1013.7,3,6,"",85
"2015-12-06 01:27:00",11.7,9.2,0.0,0.0,0,1013.6,2,3,"",85
"2015-12-06 01:28:00",11.7,9.2,0.0,0.0,0,1013.7,1,5,"",85
"2015-12-06 01:29:00",11.7,9.2,0.0,0.0,0,1013.7,3,6,"",85
"2015-12-06 01:30:00",11.7,9.2,0.0,0.0,0,1013.7,3,3,"",85
"2015-12-06 01:31:00",11.7,9.2,0.0,0.0,0,1013.8,2,9,"",85
"2015-12-06 01:32:00",11.7,9.4,0.0,0.0,0,1013.7,3,5,"",86
"2015-12-06 01:33:00",11.7,9.4,0.0,0.0,0,1013.7,2,5,"",86
"2015-12-06 01:34:00",11.7,9.4,0.0,0.0,0,1013.7,2,6,"",86
"2015-12-06 01:35:00",11.7,9.4,0.0,0.0,0,1013.7,3,9,"",86
"2015-12-06 01:36:00",11.7,9.4,0.0,0.0,0,1013.7,6,12,"",86
"2015-12-06 01:37:00",11.7,9.4,0.0,0.0,0,1013.8,5,7,"",86
"2015-12-06 01:38:00",11.7,9.4,0.0,0.0,0,1013.8,5,9,"",86
"2015-12-06 01:39:00",11.6,9.4,0.0,0.0,0,1013.8,5,9,"",86
"2015-12-06 01:40:00",11.6,9.5,0.0,0.0,0,1013.8,3,6,"",87
"2015-12-06 01:41:00",11.6,9.5,0.0,0.0,0,1013.9,2,7,"",87
"2015-12-06 01:42:00",11.6,9.5,0.0,0.0,0,1013.8,5,12,"",87
"2015-12-06 01:43:00",11.6,9.5,0.0,0.0,0,1013.9,7,7,"",87
"2015-12-06 01:44:00",11.6,9.5,0.0,0.0,0,1014.0,5,8,"",87
"2015-12-06 01:45:00",11.6,9.5,0.0,0.0,0,1014.0,3,8,"",87
"2015-12-06 01:46:00",11.6,9.7,0.0,0.0,0,1014.0,5,9,"",88
"2015-12-06 01:47:00",11.6,9.7,0.0,0.0,0,1014.1,6,8,"",88
"2015-12-06 01:48:00",11.6,9.7,0.0,0.0,0,1014.0,5,12,"",88
"2015-12-06 01:49:00",11.6,9.7,0.0,0.0,0,1014.0,5,8,"",88
"2015-12-06 01:50:00",11.6,9.7,0.0,0.0,0,1013.9,3,7,"",88
"2015-12-06 01:51:00",11.6,9.6,0.0,0.0,0,1013.9,5,9,"",88
"2015-12-06 01:52:00",11.6,9.6,0.0,0.0,0,1013.8,5,7,"",88
"2015-12-06 01:53:00",11.6,9.6,0.0,0.0,0,1013.8,3,10,"",88
"2015-12-06 01:54:00",11.5,9.6,0.0,0.0,0,1013.8,3,3,"",88
"2015-12-06 01:55:00",11.5,9.8,0.0,0.0,0,1013.8,2,5,"",89
"2015-12-06 01:56:00",11.5,9.7,0.0,0.0,0,1013.7,3,10,"",89
"2015-12-06 01:57:00",11.5,9.7,0.0,0.0,0,1013.7,5,7,"",89
"2015-12-06 01:58:00",11.5,9.7,0.0,0.0,0,1013.6,3,7,"",89
"2015-12-06 01:59:00",11.5,9.7,0.0,0.0,0,1013.7,5,12,"",89
"2015-12-06 02:00:00",11.4,9.7,0.0,0.0,0,1013.7,5,6,"",89
"2015-12-06 02:01:00",11.4,9.7,0.0,0.0,0,1013.7,3,12,"",89
"2015-12-06 02:02:00",11.3,9.5,0.0,0.0,0,1013.6,5,7,"",89
"2015-12-06 02:03:00",11.2,9.5,0.0,0.0,0,1013.6,3,9,"",89
"2015-12-06 02:04:00",11.3,9.6,0.0,0.0,0,1013.7,3,14,"",89
"2015-12-06 02:05:00",11.3,9.6,0.0,0.0,0,1013.7,6,12,"",89
"2015-12-06 02:06:00",11.3,9.6,0.0,0.0,0,1013.8,6,9,"",89
"2015-12-06 02:07:00",11.3,9.5,0.0,0.0,0,1013.8,3,3,"",89
"2015-12-06 02:08:00",11.3,9.5,0.0,0.0,0,1013.7,2,3,"",89
"2015-12-06 02:09:00",11.3,9.5,0.0,0.0,0,1013.9,2,6,"",89
"2015-12-06 02:10:00",11.2,9.5,0.0,0.0,0,1013.8,3,3,"",89
"2015-12-06 02:11:00",11.2,9.5,0.0,0.0,0,1013.8,3,8,"",89
"2015-12-06 02:12:00",11.2,9.5,0.0,0.0,0,1013.8,3,5,"",89
"2015-12-06 02:13:00",11.2,9.5,0.0,0.0,0,1013.8,3,7,"",89
"2015-12-06 02:14:00",11.2,9.5,0.0,0.0,0,1013.8,3,5,"",89
"2015-12-06 02:15:00",11.2,9.5,0.0,0.0,0,1013.7,2,3,"",89
"2015-12-06 02:16:00",11.2,9.5,0.0,0.0,0,1013.7,2,9,"",89
"2015-12-06 02:17:00",11.2,9.4,0.0,0.0,0,1013.7,5,9,"",89
"2015-12-06 02:18:00",11.2,9.4,0.0,0.0,0,1013.7,3,5,"",89
"2015-12-06 02:19:00",11.2,9.4,0.0,0.0,0,1013.7,5,14,"",89
"2015-12-06 02:20:00",11.2,9.4,0.0,0.0,0,1013.7,5,7,"",89
"2015-12-06 02:21:00",11.2,9.4,0.0,0.0,0,1013.7,5,7,"",89
"2015-12-06 02:22:00",11.2,9.4,0.0,0.0,0,1013.8,5,10,"",89
"2015-12-06 02:23:00",11.2,9.4,0.0,0.0,0,1013.8,5,8,"",89
"2015-12-06 02:24:00",11.2,9.4,0.0,0.0,0,1013.8,5,5,"",89
"2015-12-06 02:25:00",11.2,9.4,0.0,0.0,0,1013.8,3,6,"",89
"2015-12-06 02:26:00",11.2,9.4,0.0,0.0,0,1013.8,5,8,"",89
"2015-12-06 02:27:00",11.2,9.4,0.0,0.0,0,1013.7,2,5,"",89
"2015-12-06 02:28:00",11.2,9.4,0.0,0.0,0,1013.8,3,9,"",89
"2015-12-06 02:29:00",11.2,9.4,0.0,0.0,0,1013.8,5,12,"",89
"2015-12-06 02:30:00",11.2,9.5,0.0,0.0,0,1013.8,3,6,"",89
"2015-12-06 02:31:00",11.2,9.5,0.0,0.0,0,1013.7,3,9,"",89
"2015-12-06 02:32:00",11.2,9.5,0.0,0.0,0,1013.8,5,7,"",89
"2015-12-06 02:33:00",11.2,9.5,0.0,0.0,0,1013.8,2,3,"",89
"2015-12-06 02:34:00",11.2,9.5,0.0,0.0,0,1013.9,3,9,"",89
"2015-12-06 02:35:00",11.2,9.5,0.0,0.0,0,1013.8,5,6,"",89
"2015-12-06 02:36:00",11.3,9.5,0.0,0.0,0,1013.8,3,9,"",89
"2015-12-06 02:37:00",11.3,9.5,0.0,0.0,0,1013.8,3,6,"",89
"2015-12-06 02:38:00",11.3,9.5,0.0,0.0,0,1013.8,3,5,"",89
"2015-12-06 02:39:00",11.3,9.5,0.0,0.0,0,1013.8,2,3,"",89
"2015-12-06 02:40:00",11.3,9.5,0.0,0.0,0,1013.8,2,2,"",89
"2015-12-06 02:41:00",11.3,9.5,0.0,0.0,0,1013.8,2,3,"",89
"2015-12-06 02:42:00",11.3,9.6,0.0,0.0,0,1013.8,2,8,"",89
"2015-12-06 02:43:00",11.3,9.6,0.0,0.0,0,1013.8,3,3,"",89
"2015-12-06 02:44:00",11.3,9.6,0.0,0.0,0,1013.9,2,3,"",89
"2015-12-06 02:45:00",11.3,9.6,0.0,0.0,0,1013.8,1,6,"",89
"2015-12-06 02:46:00",11.3,9.6,0.0,0.0,0,1013.9,3,8,"",89
"2015-12-06 02:47:00",11.3,9.6,0.0,0.0,0,1013.9,2,6,"",89
"2015-12-06 02:48:00",11.3,9.6,0.0,0.0,0,1013.8,2,5,"",89
"2015-12-06 02:49:00",11.3,9.5,0.0,0.0,0,1013.8,2,5,"",89
"2015-12-06 02:50:00",11.2,9.5,0.0,0.0,0,1013.8,1,3,"",89
"2015-12-06 02:51:00",11.2,9.5,0.0,0.0,0,1013.8,2,9,"",89
"2015-12-06 02:52:00",11.2,9.5,0.0,0.0,0,1013.7,5,6,"",89
"2015-12-06 02:53:00",11.2,9.5,0.0,0.0,0,1013.7,3,8,"",89
"2015-12-06 02:54:00",11.3,9.5,0.0,0.0,0,1013.7,3,9,"",89
"2015-12-06 02:55:00",11.3,9.6,0.0,0.0,0,1013.7,3,3,"",89
"2015-12-06 02:56:00",11.4,9.7,0.0,0.0,0,1013.7,5,12,"",89
"2015-12-06 02:57:00",11.4,9.7,0.0,0.0,0,1013.8,5,12,"",89
"2015-12-06 02:58:00",11.4,9.7,0.0,0.0,0,1013.7,6,14,"",89
"2015-12-06 02:59:00",11.4,9.7,0.0,0.0,0,1013.7,5,6,"",89
"2015-12-06 03:00:00",11.4,9.7,0.0,0.0,0,1013.9,5,7,"",89
"2015-12-06 03:01:00",11.4,9.7,0.0,0.0,0,1013.8,6,9,"",89
"2015-12-06 03:02:00",11.5,9.7,0.0,0.0,0,1013.8,5,6,"",89
"2015-12-06 03:03:00",11.5,9.7,0.0,0.0,0,1013.8,5,12,"",89
"2015-12-06 03:04:00",11.5,9.9,0.0,0.0,0,1013.8,6,8,"",90
"2015-12-06 03:05:00",11.5,9.7,0.0,0.0,0,1013.7,6,18,"",89
"2015-12-06 03:06:00",11.5,9.7,0.0,0.0,0,1013.7,6,17,"",89
"2015-12-06 03:07:00",11.5,10.0,0.0,0.0,0,1013.7,5,9,"",91
"2015-12-06 03:08:00",11.6,10.0,0.0,0.0,0,1013.8,3,3,"",90
"2015-12-06 03:09:00",11.6,10.0,0.0,0.0,0,1013.7,2,6,"",90
"2015-12-06 03:10:00",11.6,10.0,0.0,0.0,0,1013.8,5,12,"",90
"2015-12-06 03:11:00",11.6,10.0,0.0,0.0,0,1013.7,6,10,"",90
"2015-12-06 03:12:00",11.6,10.0,0.0,0.0,0,1013.8,3,3,"",90
"2015-12-06 03:13:00",11.6,10.0,0.0,0.0,0,1013.8,3,8,"",90
"2015-12-06 03:14:00",11.6,10.0,0.0,0.0,0,1013.7,5,10,"",90
"2015-12-06 03:15:00",11.6,10.0,0.0,0.0,0,1013.7,5,6,"",90
"2015-12-06 03:16:00",11.6,10.0,0.0,0.0,0,1013.7,5,10,"",90
"2015-12-06 03:17:00",11.6,10.0,0.0,0.0,0,1013.7,6,9,"",90
"2015-12-06 03:18:00",11.6,10.0,0.0,0.0,0,1013.8,6,10,"",90
"2015-12-06 03:19:00",11.6,10.0,0.0,0.0,0,1013.7,5,7,"",90
"2015-12-06 03:20:00",11.6,10.0,0.0,0.0,0,1013.6,5,9,"",90
"2015-12-06 03:21:00",11.6,10.0,0.0,0.0,0,1013.8,5,8,"",90
"2015-12-06 03:22:00",11.6,10.0,0.0,0.0,0,1013.7,5,6,"",90
"2015-12-06 03:23:00",11.6,10.0,0.0,0.0,0,1013.8,3,8,"",90
"2015-12-06 03:24:00",11.6,10.0,0.0,0.0,0,1013.7,3,5,"",90
"2015-12-06 03:25:00",11.6,10.0,0.0,0.0,0,1013.8,3,9,"",90
"2015-12-06 03:26:00",11.6,10.0,0.0,0.0,0,1013.7,3,7,"",90
"2015-12-06 03:27:00",11.6,10.2,0.0,0.0,0,1013.6,5,5,"",91
"2015-12-06 03:28:00",11.7,10.2,0.0,0.0,0,1013.7,3,5,"",91
"2015-12-06 03:29:00",11.6,10.2,0.0,0.0,0,1013.7,3,10,"",91
"2015-12-06 03:30:00",11.7,10.2,0.0,0.0,0,1013.7,3,6,"",91
"2015-12-06 03:31:00",11.7,10.2,0.0,0.0,0,1013.7,3,5,"",91
"2015-12-06 03:32:00",11.7,10.2,0.0,0.0,0,1013.8,3,5,"",91
"2015-12-06 03:33:00",11.7,10.2,0.0,0.0,0,1013.7,2,3,"",91
"2015-12-06 03:34:00",11.7,10.2,0.0,0.0,0,1013.6,3,12,"",91
"2015-12-06 03:35:00",11.7,10.2,0.0,0.0,0,1013.7,3,3,"",91
"2015-12-06 03:36:00",11.7,10.2,0.0,0.0,0,1013.7,2,5,"",91
"2015-12-06 03:37:00",11.7,10.2,0.0,0.0,0,1013.6,5,9,"",91
"2015-12-06 03:38:00",11.7,10.2,0.0,0.0,0,1013.6,5,7,"",91
"2015-12-06 03:39:00",11.7,10.2,0.0,0.0,0,1013.7,5,10,"",91
"2015-12-06 03:40:00",11.7,10.2,0.0,0.0,0,1013.7,5,6,"",91
"2015-12-06 03:41:00",11.7,10.2,0.0,0.0,0,1013.7,3,6,"",91
"2015-12-06 03:42:00",11.7,10.2,0.0,0.0,0,1013.7,2,5,"",91
"2015-12-06 03:43:00",11.7,10.2,0.0,0.0,0,1013.7,2,8,"",91
"2015-12-06 03:44:00",11.7,10.2,0.0,0.0,0,1013.6,5,12,"",91
"2015-12-06 03:45:00",11.7,10.2,0.0,0.0,0,1013.6,3,9,"",91
"2015-12-06 03:46:00",11.7,10.2,0.0,0.0,0,1013.7,3,5,"",91
"2015-12-06 03:47:00",11.7,10.2,0.0,0.0,0,1013.6,3,7,"",91
"2015-12-06 03:48:00",11.7,10.2,0.0,0.0,0,1013.6,3,3,"",91
"2015-12-06 03:49:00",11.7,10.2,0.0,0.0,0,1013.6,2,6,"",91
"2015-12-06 03:50:00",11.7,10.2,0.0,0.0,0,1013.6,3,7,"",91
"2015-12-06 03:51:00",11.7,10.4,0.0,0.0,0,1013.5,3,9,"",92
"2015-12-06 03:52:00",11.7,10.4,0.0,0.0,0,1013.5,6,8,"",92
"2015-12-06 03:53:00",11.7,10.4,0.0,0.0,0,1013.6,3,6,"",92
"2015-12-06 03:54:00",11.7,10.4,0.0,0.0,0,1013.6,3,6,"",92
"2015-12-06 03:55:00",11.7,10.4,0.0,0.0,0,1013.6,3,9,"",92
"2015-12-06 03:56:00",11.7,10.4,0.0,0.0,0,1013.6,5,6,"",92
"2015-12-06 03:57:00",11.7,10.4,0.0,0.0,0,1013.6,5,8,"",92
"2015-12-06 03:58:00",11.7,10.4,0.0,0.0,0,1013.6,5,6,"",92
"2015-12-06 03:59:00",11.7,10.4,0.0,0.0,0,1013.7,3,6,"",92
"2015-12-06 04:00:00",11.7,10.4,0.0,0.0,0,1013.6,2,9,"",92
"2015-12-06 04:01:00",11.7,10.4,0.0,0.0,0,1013.6,5,12,"",92
"2015-12-06 04:02:00",11.7,10.4,0.0,0.0,0,1013.6,5,5,"",92
"2015-12-06 04:03:00",11.7,10.4,0.0,0.0,0,1013.6,5,12,"",92
"2015-12-06 04:04:00",11.7,10.4,0.0,0.0,0,1013.6,5,5,"",92
"2015-12-06 04:05:00",11.7,10.4,0.0,0.0,0,1013.7,3,3,"",92
"2015-12-06 04:06:00",11.7,10.4,0.0,0.0,0,1013.7,2,3,"",92
"2015-12-06 04:07:00",11.7,10.4,0.0,0.0,0,1013.7,2,7,"",92
"2015-12-06 04:08:00",11.7,10.4,0.0,0.0,0,1013.7,3,7,"",92
"2015-12-06 04:09:00",11.7,10.4,0.0,0.0,0,1013.7,6,22,"",92
"2015-12-06 04:10:00",11.7,10.6,0.0,0.0,0,1013.8,8,22,"",93
"2015-12-06 04:11:00",11.7,10.6,0.0,0.0,0,1013.7,5,8,"",93
"2015-12-06 04:12:00",11.7,10.6,0.0,0.0,0,1013.8,3,5,"",93
"2015-12-06 04:13:00",11.7,10.6,0.0,0.0,0,1013.8,2,3,"",93
"2015-12-06 04:14:00",11.7,10.6,0.0,0.0,0,1013.8,2,5,"",93
"2015-12-06 04:15:00",11.7,10.6,0.0,0.0,0,1013.7,3,6,"",93
"2015-12-06 04:16:00",11.7,10.6,0.0,0.0,0,1013.8,6,12,"",93
"2015-12-06 04:17:00",11.7,10.6,0.0,0.0,0,1013.7,6,6,"",93
"2015-12-06 04:18:00",11.7,10.6,0.0,0.0,0,1013.6,5,10,"",93
"2015-12-06 04:19:00",11.7,10.6,0.0,0.0,0,1013.6,5,7,"",93
"2015-12-06 04:20:00",11.7,10.6,0.0,0.0,0,1013.6,5,10,"",93
"2015-12-06 04:21:00",11.7,10.6,0.0,0.0,0,1013.6,5,8,"",93
"2015-12-06 04:22:00",11.7,10.6,0.0,0.0,0,1013.5,5,12,"",93
"2015-12-06 04:23:00",11.7,10.6,0.0,0.0,0,1013.5,6,9,"",93
"2015-12-06 04:24:00",11.7,10.6,0.0,0.0,0,1013.5,3,7,"",93
"2015-12-06 04:25:00",11.7,10.6,0.0,0.0,0,1013.5,5,9,"",93
"2015-12-06 04:26:00",11.7,10.6,0.0,0.0,0,1013.5,3,9,"",93
"2015-12-06 04:27:00",11.7,10.6,0.0,0.0,0,1013.4,6,8,"",93
"2015-12-06 04:28:00",11.7,10.6,0.0,0.0,0,1013.5,3,5,"",93
"2015-12-06 04:29:00",11.7,10.6,0.0,0.0,0,1013.5,3,5,"",93
"2015-12-06 04:30:00",11.7,10.6,0.0,0.0,0,1013.5,2,6,"",93
"2015-12-06 04:31:00",11.7,10.6,0.0,0.0,0,1013.5,2,6,"",93
"2015-12-06 04:32:00",11.7,10.6,0.0,0.0,0,1013.4,5,10,"",93
"2015-12-06 04:33:00",11.7,10.6,0.0,0.0,0,1013.3,5,6,"",93
"2015-12-06 04:34:00",11.7,10.6,0.0,0.0,0,1013.4,3,6,"",93
"2015-12-06 04:35:00",11.7,10.6,0.0,0.0,0,1013.4,5,8,"",93
"2015-12-06 04:36:00",11.7,10.6,0.0,0.0,0,1013.4,5,3,"",93
"2015-12-06 04:37:00",11.7,10.6,0.0,0.0,0,1013.4,3,6,"",93
"2015-12-06 04:38:00",11.7,10.6,0.0,0.0,0,1013.3,5,12,"",93
"2015-12-06 04:39:00",11.7,10.6,0.0,0.0,0,1013.3,5,6,"",93
"2015-12-06 04:40:00",11.7,10.6,0.0,0.0,0,1013.3,3,5,"",93
"2015-12-06 04:41:00",11.7,10.6,0.0,0.0,0,1013.3,5,9,"",93
"2015-12-06 04:42:00",11.7,10.6,0.0,0.0,0,1013.3,6,8,"",93
"2015-12-06 04:43:00",11.8,10.7,0.0,0.0,0,1013.2,3,6,"",93
"2015-12-06 04:44:00",11.8,10.7,0.0,0.0,0,1013.2,5,5,"",93
"2015-12-06 04:45:00",11.8,10.7,0.0,0.0,0,1013.2,2,5,"",93
"2015-12-06 04:46:00",11.8,10.7,0.0,0.0,0,1013.3,3,5,"",93
"2015-12-06 04:47:00",11.8,10.7,0.0,0.0,0,1013.2,3,3,"",93
"2015-12-06 04:48:00",11.8,10.7,0.0,0.0,0,1013.2,2,7,"",93
"2015-12-06 04:49:00",11.8,10.7,0.0,0.0,0,1013.2,3,7,"",93
"2015-12-06 04:50:00",11.8,10.7,0.0,0.0,0,1013.2,5,12,"",93
"2015-12-06 04:51:00",11.8,10.7,0.0,0.0,0,1013.2,3,12,"",93
"2015-12-06 04:52:00",11.8,10.7,0.0,0.0,0,1013.2,3,3,"",93
"2015-12-06 04:53:00",11.8,10.7,0.0,0.0,0,1013.2,1,3,"",93
"2015-12-06 04:54:00",11.8,10.7,0.0,0.0,0,1013.2,3,9,"",93
"2015-12-06 04:55:00",11.8,10.7,0.0,0.0,0,1013.2,6,12,"",93
"2015-12-06 04:56:00",11.8,10.7,0.0,0.0,0,1013.2,5,16,"",93
"2015-12-06 04:57:00",11.8,10.7,0.0,0.0,0,1013.1,7,16,"",93
"2015-12-06 04:58:00",11.8,10.7,0.0,0.0,0,1013.2,3,6,"",93
"2015-12-06 04:59:00",11.8,10.7,0.0,0.0,0,1013.3,2,3,"",93
"2015-12-06 05:00:00",11.8,10.7,0.0,0.0,0,1013.2,2,5,"",93
"2015-12-06 05:01:00",11.9,10.8,0.0,0.0,0,1013.3,2,9,"",93
"2015-12-06 05:02:00",11.9,10.8,0.0,0.0,0,1013.2,5,7,"",93
"2015-12-06 05:03:00",11.9,10.8,0.0,0.0,0,1013.2,3,5,"",93
"2015-12-06 05:04:00",11.9,10.8,0.0,0.0,0,1013.2,2,3,"",93
"2015-12-06 05:05:00",11.9,10.8,0.0,0.0,0,1013.2,2,8,"",93
"2015-12-06 05:06:00",11.9,10.8,0.0,0.0,0,1013.3,3,12,"",93
"2015-12-06 05:07:00",11.9,10.8,0.0,0.0,0,1013.2,3,12,"",93
"2015-12-06 05:08:00",11.9,10.8,0.0,0.0,0,1013.3,2,7,"",93
"2015-12-06 05:09:00",11.9,10.7,0.0,0.0,0,1013.3,2,7,"",92
"2015-12-06 05:10:00",11.9,10.7,0.0,0.0,0,1013.3,2,3,"",92
"2015-12-06 05:11:00",11.9,10.7,0.0,0.0,0,1013.4,2,5,"",92
"2015-12-06 05:12:00",11.9,10.7,0.0,0.0,0,1013.3,5,12,"",92
"2015-12-06 05:13:00",11.9,10.7,0.0,0.0,0,1013.4,3,12,"",92
"2015-12-06 05:14:00",11.9,10.7,0.0,0.0,0,1013.4,5,12,"",92
"2015-12-06 05:15:00",12.0,10.7,0.0,0.0,0,1013.4,5,8,"",92
"2015-12-06 05:16:00",12.0,10.7,0.0,0.0,0,1013.4,5,6,"",92
"2015-12-06 05:17:00",12.0,10.7,0.0,0.0,0,1013.4,3,7,"",92
"2015-12-06 05:18:00",12.0,10.7,0.0,0.0,0,1013.4,3,6,"",92
"2015-12-06 05:19:00",12.0,10.7,0.0,0.0,0,1013.4,3,5,"",92
"2015-12-06 05:20:00",12.0,10.7,0.0,0.0,0,1013.4,1,3,"",92
"2015-12-06 05:21:00",12.0,10.7,0.0,0.0,0,1013.5,3,8,"",92
"2015-12-06 05:22:00",12.0,10.8,0.0,0.0,0,1013.3,5,6,"",92
"2015-12-06 05:23:00",12.0,10.8,0.0,0.0,0,1013.4,3,5,"",92
"2015-12-06 05:24:00",12.1,10.8,0.0,0.0,0,1013.5,3,10,"",92
"2015-12-06 05:25:00",12.1,10.8,0.0,0.0,0,1013.4,6,10,"",92
"2015-12-06 05:26:00",12.1,10.8,0.0,0.0,0,1013.5,2,6,"",92
"2015-12-06 05:27:00",12.1,10.8,0.0,0.0,0,1013.4,3,8,"",92
"2015-12-06 05:28:00",12.1,10.8,0.0,0.0,0,1013.4,3,8,"",92
"2015-12-06 05:29:00",12.1,10.8,0.0,0.0,0,1013.4,3,7,"",92
"2015-12-06 05:30:00",12.1,10.8,0.0,0.0,0,1013.4,5,12,"",92
"2015-12-06 05:31:00",12.1,10.9,0.0,0.0,0,1013.5,5,7,"",92
"2015-12-06 05:32:00",12.1,10.9,0.0,0.0,0,1013.4,3,7,"",92
"2015-12-06 05:33:00",12.1,10.9,0.0,0.0,0,1013.4,2,5,"",92
"2015-12-06 05:34:00",12.1,10.9,0.0,0.0,0,1013.4,2,7,"",92
"2015-12-06 05:35:00",12.2,10.9,0.0,0.0,0,1013.4,5,12,"",92
"2015-12-06 05:36:00",12.2,10.9,0.0,0.0,0,1013.4,3,7,"",92
"2015-12-06 05:37:00",12.2,10.9,0.0,0.0,0,1013.4,6,18,"",92
"2015-12-06 05:38:00",12.2,10.9,0.0,0.0,0,1013.4,7,12,"",92
"2015-12-06 05:39:00",12.2,10.9,0.0,0.0,0,1013.4,6,9,"",92
"2015-12-06 05:40:00",12.2,10.9,0.0,0.0,0,1013.4,5,7,"",92
"2015-12-06 05:41:00",12.2,10.9,0.0,0.0,0,1013.4,3,3,"",92
"2015-12-06 05:42:00",12.2,11.0,0.0,0.0,0,1013.4,2,6,"",92
"2015-12-06 05:43:00",12.2,11.0,0.0,0.0,0,1013.5,3,10,"",92
"2015-12-06 05:44:00",12.2,11.0,0.2,0.0,0,1013.5,5,8,"",92
"2015-12-06 05:45:00",12.2,11.0,0.2,0.0,0,1013.5,3,3,"",92
"2015-12-06 05:46:00",12.2,11.0,0.2,0.0,0,1013.5,3,12,"",92
"2015-12-06 05:47:00",12.3,11.0,0.2,0.0,0,1013.5,5,9,"",92
"2015-12-06 05:48:00",12.3,11.0,0.2,0.0,0,1013.4,2,3,"",92
"2015-12-06 05:49:00",12.3,11.0,0.2,0.0,0,1013.5,2,15,"",92
"2015-12-06 05:50:00",12.3,11.0,0.2,0.0,0,1013.4,5,6,"",92
"2015-12-06 05:51:00",12.3,11.0,0.2,0.0,0,1013.4,3,7,"",92
"2015-12-06 05:52:00",12.3,11.0,0.2,0.0,0,1013.5,2,3,"",92
"2015-12-06 05:53:00",12.3,11.0,0.2,0.0,0,1013.5,2,3,"",92
"2015-12-06 05:54:00",12.3,11.1,0.2,0.0,0,1013.5,3,8,"",92
"2015-12-06 05:55:00",12.3,11.1,0.2,0.0,0,1013.5,5,8,"",92
"2015-12-06 05:56:00",12.3,11.1,0.2,0.0,0,1013.5,3,6,"",92
"2015-12-06 05:57:00",12.3,11.1,0.2,0.0,0,1013.4,3,5,"",92
"2015-12-06 05:58:00",12.3,11.1,0.2,0.0,0,1013.3,3,5,"",92
"2015-12-06 05:59:00",12.3,11.1,0.2,0.0,0,1013.4,3,6,"",92
"2015-12-06 06:00:00",12.3,11.1,0.2,0.0,0,1013.4,3,6,"",92
"2015-12-06 06:01:00",12.3,11.1,0.2,0.0,0,1013.4,3,6,"",92
"2015-12-06 06:02:00",12.3,11.1,0.2,0.0,0,1013.4,3,7,"",92
"2015-12-06 06:03:00",12.3,11.2,0.2,0.0,0,1013.3,5,8,"",93
"2015-12-06 06:04:00",12.3,11.2,0.2,0.0,0,1013.3,3,5,"",93
"2015-12-06 06:05:00",12.3,11.2,0.2,0.0,0,1013.3,2,3,"",93
"2015-12-06 06:06:00",12.3,11.2,0.2,0.0,0,1013.4,3,8,"",93
"2015-12-06 06:07:00",12.3,11.2,0.4,0.0,0,1013.4,3,7,"",93
"2015-12-06 06:08:00",12.3,11.2,0.4,0.0,0,1013.4,3,7,"",93
"2015-12-06 06:09:00",12.3,11.2,0.4,0.0,0,1013.4,2,7,"",93
"2015-12-06 06:10:00",12.3,11.2,0.4,0.0,0,1013.5,5,6,"",93
"2015-12-06 06:11:00",12.3,11.2,0.4,0.0,0,1013.6,3,8,"",93
"2015-12-06 06:12:00",12.3,11.2,0.4,0.0,0,1013.6,7,22,"",93
"2015-12-06 06:13:00",12.3,11.2,0.4,0.0,0,1013.6,5,5,"",93
"2015-12-06 06:14:00",12.3,11.2,0.4,0.0,0,1013.6,3,12,"",93
"2015-12-06 06:15:00",12.3,11.2,0.4,0.0,0,1013.6,5,10,"",93
"2015-12-06 06:16:00",12.3,11.2,0.4,0.0,0,1013.7,7,14,"",93
"2015-12-06 06:17:00",12.3,11.2,0.4,0.0,0,1013.7,5,6,"",93
"2015-12-06 06:18:00",12.3,11.2,0.4,0.0,0,1013.6,3,5,"",93
"2015-12-06 06:19:00",12.3,11.2,0.4,0.0,0,1013.7,5,10,"",93
"2015-12-06 06:20:00",12.3,11.2,0.4,0.0,0,1013.6,8,23,"",93
"2015-12-06 06:21:00",12.3,11.4,0.6,0.0,0,1013.6,8,15,"",94
"2015-12-06 06:22:00",12.3,11.4,0.6,0.0,0,1013.6,6,8,"",94
"2015-12-06 06:23:00",12.3,11.4,0.6,0.0,0,1013.6,3,3,"",94
"2015-12-06 06:24:00",12.3,11.4,0.6,0.0,0,1013.6,1,3,"",94
"2015-12-06 06:25:00",12.3,11.4,0.6,0.0,0,1013.5,1,6,"",94
"2015-12-06 06:26:00",12.3,11.4,0.6,0.0,0,1013.6,2,7,"",94
"2015-12-06 06:27:00",12.3,11.4,0.6,0.0,0,1013.5,3,10,"",94
"2015-12-06 06:28:00",12.3,11.4,0.6,0.0,0,1013.5,6,12,"",94
"2015-12-06 06:29:00",12.3,11.4,0.6,0.0,0,1013.5,5,8,"",94
"2015-12-06 06:30:00",12.3,11.3,0.6,0.0,0,1013.6,6,14,"",94
"2015-12-06 06:31:00",12.3,11.3,0.6,0.0,0,1013.6,3,6,"",94
"2015-12-06 06:32:00",12.3,11.3,0.6,0.0,0,1013.6,5,9,"",94
"2015-12-06 06:33:00",12.3,11.3,0.6,0.0,0,1013.6,3,3,"",94
"2015-12-06 06:34:00",12.3,11.3,0.6,0.0,0,1013.6,2,3,"",94
"2015-12-06 06:35:00",12.3,11.3,0.6,0.0,0,1013.7,3,12,"",94
"2015-12-06 06:36:00",12.3,11.3,0.8,0.0,0,1013.7,3,5,"",94
"2015-12-06 06:37:00",12.3,11.3,0.8,0.0,0,1013.6,3,6,"",94
"2015-12-06 06:38:00",12.3,11.3,0.8,0.0,0,1013.6,5,9,"",94
"2015-12-06 06:39:00",12.3,11.3,0.8,0.0,0,1013.6,6,7,"",94
"2015-12-06 06:40:00",12.3,11.3,0.8,0.0,0,1013.7,3,3,"",94
"2015-12-06 06:41:00",12.3,11.3,0.8,0.0,0,1013.7,2,3,"",94
"2015-12-06 06:42:00",12.3,11.3,0.8,0.0,0,1013.7,2,9,"",94
"2015-12-06 06:43:00",12.3,11.3,0.8,0.0,0,1013.7,3,8,"",94
"2015-12-06 06:44:00",12.3,11.3,0.8,0.0,0,1013.7,5,7,"",94
"2015-12-06 06:45:00",12.3,11.3,0.8,0.0,0,1013.7,3,6,"",94